COSMOS 979

Satellite information

Favourite Embed

Satellite Type and Status

PAYLOADIN ORBIT

Key statistics

Satellite COSMOS 979 at a glance.

Uptime

17458

Days in orbit

Revolutions

≈ 12.5

Per day

Orbit

LEO

Low Earth Orbit

Inclination

74.0

Latest

Satellite identification and parameters

Extended collection of information and parameters for COSMOS 979.

Object identification

Identified? True

Debris? False

Object name: COSMOS 979

International designator: 1978-005D

Object number (NORAD): 10586

Object ID (CCSDS): 10586

Country: COMMONWEALTH OF INDEPENDENT STATES (CIS)

Current information (Y/N): Y

RCS size: MEDIUM

Orbital parameters

Period: 114.879 minutes

Inclination: 74.0276 deg

SMA: 7828.043 km

Apoapsis: 1463.522 km

Periapsis: 1436.294 km

RAAN: 128.8674 deg

Eccentricy: 0.00173912

Argument of periapsis: 320.1811 deg

Mean anomaly: 111.1291 deg

Mean motion: 12.53495962 rev/day

Mean motion (dot): -0.00000015 rev/day2

B* drag term: 0.00000780458 1/REarth

Two-line elements (TLE)

Creation date: Oct. 28, 2025, 2:18 a.m.

Reference frame: TEME

Reference center: EARTH

Epoch: Oct. 27, 2025, 10:53 p.m. UTC

TLE line 0: 0 COSMOS 979

TLE line 1: 1 10586U 78005D 25300.95385514 -.00000015 00000-0 78046-5 0 9997

TLE line 2: 2 10586 74.0276 128.8674 0017391 320.1811 111.1291 12.53495962178065

Live tracking on map

Real-time ground track for satellite COSMOS 979.

In-orbit conjunctions

A list of the most updated potential collisions computed for object COSMOS 979.

Target Orbit TCA Probability of collision Miss distance Type
COSMOS 2499 DEB LEO 2025-06-16 07:26:34 0.0001161128 160.0 (m) DEBRIS

Associated space launch

Tselina-D satellites provided detailed observation of radio sources detected by the smaller Tselina-O satellites as part of the Tselina ELINT system.

COSMOS 979 was lifted into orbit during the mission ‘Vostok 8A92M | Tselina-D 14’, on board a Vostok 8A92M space rocket.

The launch took place on Jan. 10, 1978, 1:23 p.m. from 43/4 (43R).

For more information about the launch, click the button.

Launch to space Vostok 8A92M | Tselina-D 14
Vostok 8A92M | Tselina-D 14

Agency: N/A

Status: Launch Successful

Launch date: Jan. 10, 1978, 1:23 p.m. UTC

Rocket: Vostok 8A92M

Launch pad: 43/4 (43R)

Location: Plesetsk Cosmodrome, Russian Federation

...

Latest news about this satellite

There are no fresh news available about this satellite. Check back as we update our databases every day.


Newsletter sign-up

Weekly statistics, charts and insights to help you stay on top of the space industry.